CAPE
2 4 4 1 3 0 2 1 50 28 10 104 174 43 0 0 0 34 98 67 6 0 0 0 15 21 8 0 0 0 0 0 0 3 19 35 60 25
3 2 3 6 3 2 1 2 0 42 10 11 61 99 67 19 25 84 120 84 10 0 0 0 0 0 0 0 0 0 0 0 0 0 0 3 17 2
6 4 4 5 4 3 1 8 4 8 13 7 23 143 295 96 102 110 126 150 96 0 0 0 0 0 0 0 0 0 0 0 0 0 0 1 1 2
5 4 3 2 2 3 3 3 8 6 19 19 35 51 230 308 236 279 343 131 183 40 0 0 0 0 0 0 0 0 0 0 0 0 0 0 0 1
5 5 4 3 3 4 3 6 4 10 19 25 60 11 112 234 323 331 453 380 269 85 6 0 0 0 0 0 0 0 0 0 0 0 0 0 0 0
2 2 2 3 5 5 2 5 7 3 25 25 24 43 87 130 255 320 385 254 86 13 0 0 0 0 0 0 0 0 0 0 0 0 0 0 0 0
0 1 1 3 2 2 2 2 3 3 7 34 9 27 64 105 46 142 220 104 18 0 0 0 0 0 0 1 2 0 0 0 0 0 0 0 0 0
0 0 0 2 1 1 4 5 2 0 0 4 23 20 4 57 88 55 94 123 0 1 0 0 0 0 0 2 5 2 0 0 0 0 0 0 0 0
0 0 0 1 1 1 1 3 6 5 5 2 1 3 1 4 4 0 7 20 4 7 0 0 2 1 3 4 7 8 2 0 0 0 0 0 0 0
0 0 0 0 1 1 2 2 2 2 3 3 6 6 5 6 4 4 0 1 0 1 1 0 4 1 11 8 8 8 8 7 4 2 1 0 0 0
0 0 0 0 3 2 2 1 2 1 1 2 3 2 3 5 5 0 0 1 0 2 4 2 11 8 16 12 7 7 6 7 7 6 4 1 0 0
0 0 1 0 0 1 2 3 2 1 2 1 0 0 1 2 3 4 7 0 1 2 4 2 4 4 1 7 2 2 2 2 3 3 4 1 1 5
0 0 0 0 0 0 0 1 1 0 0 1 0 0 0 1 1 1 2 5 0 5 4 2 1 2 1 4 3 1 1 1 1 3 5 5 3 2
0 0 0 0 0 0 0 0 0 0 0 0 1 2 2 2 1 1 0 0 0 3 3 2 2 1 1 0 0 1 3 1 2 1 1 2 4 2
0 0 0 0 0 0 0 0 0 0 0 0 0 0 0 0 0 1 1 0 1 1 0 1 1 2 2 2 0 1 2 0 1 1 1 1 3 5
0 0 0 0 0 0 0 0 0 0 0 0 0 0 0 0 0 0 0 0 1 0 0 0 0 2 3 3 1 0 1 1 1 1 1 1 1 3
0 0 0 0 0 0 0 0 0 0 0 0 0 0 0 0 0 0 0 0 0 0 0 0 1 0 1 0 1 1 1 0 0 1 1 1 1 1
0 0 0 0 0 0 0 0 0 0 0 0 0 0 0 0 0 0 0 0 0 0 0 0 0 1 1 0 0 0 1 1 0 1 1 1 1 0
0 0 0 0 0 0 0 0 0 0 0 0 0 0 0 0 0 0 0 0 0 0 0 0 0 0 0 1 0 0 0 0 0 1 1 1 1 1
0 0 0 0 0 0 0 0 0 0 0 0 0 0 0 0 0 0 0 0 0 0 0 0 0 0 1 1 3 1 0 1 0 1 1 1 1 0
0 0 0 0 0 0 1 2 2 0 0 0 0 0 0 0 0 0 0 0 0 0 0 0 0 0 0 0 4 1 1 1 0 1 2 1 1 1
0 0 0 0 0 0 1 2 0 1 0 0 0 0 0 0 0 0 0 0 0 0 0 0 0 0 0 0 2 1 2 1 0 0 0 0 2 4
0 0 0 0 0 0 0 1 1 1 2 2 0 0 0 0 0 0 0 0 0 0 0 0 0 0 0 0 0 5 0 0 2 0 0 0 0 0
CIN
-0 -0 -0 -0 -0 -0 -0 -0 -5 -0 -4 -11 -0 -21 -0 -0 -0 -86 -107 -185 -395 -0 -0 -0 -278 -260 -215 -0 -0 -0 -0 -0 -0 -1 -0 -0 -0 -4
-0 -0 -0 -0 -0 -0 -1 -0 -0 -0 -0 -1 -3 -4 -7 -66 -78 -116 -160 -190 -323 -0 -0 -0 -0 -0 -0 -0 -0 -0 -0 -0 -0 -0 -0 -0 -1 -0
-0 -0 -0 -0 -0 -0 -0 -0 -0 -0 -0 -1 -2 -9 -3 -6 -21 -49 -72 -128 -199 -0 -0 -0 -0 -0 -0 -0 -0 -0 -0 -0 -0 -0 -0 -0 -2 -0
-0 -0 -0 -0 -0 -0 -0 -0 -0 -1 -0 -0 -23 -6 -3 -0 -2 -8 -15 -62 -70 -229 -0 -0 -0 -0 -0 -0 -0 -0 -0 -0 -0 -0 -0 -0 -0 -0
-0 -0 -0 -0 -0 -0 -0 -0 -0 -0 -0 -0 -53 -48 -13 -2 -3 -3 -1 -11 -37 -81 -351 -0 -0 -0 -0 -0 -0 -0 -0 -0 -0 -0 -0 -0 -0 -0
-0 -0 -0 -0 -0 -0 -0 -0 -0 -0 -0 -0 -0 -34 -6 -9 -1 -0 -0 -6 -37 -97 -0 -0 -0 -0 -0 -0 -0 -0 -0 -0 -0 -0 -0 -0 -0 -0
-0 -0 -0 -0 -0 -0 -0 -0 -0 -0 -1 -0 -0 -73 -24 -13 -30 -15 -0 -1 -42 -0 -0 -0 -0 -0 -0 -0 -0 -0 -0 -0 -0 -0 -0 -0 -0 -0
-0 -0 -0 -0 -0 -0 -0 -0 -0 -0 -0 -0 -0 -0 -0 -29 -13 -34 -16 -13 -0 -0 -0 -0 -0 -0 -0 -0 -0 -0 -0 -0 -0 -0 -0 -0 -0 -0
-0 -0 -0 -0 -0 -0 -0 -0 -0 -0 -0 -0 -0 -0 -0 -0 -0 -0 -8 -65 -3 -3 -0 -0 -0 -0 -0 -0 -0 -0 -0 -0 -0 -0 -0 -0 -0 -0
-0 -0 -0 -0 -0 -0 -0 -0 -0 -0 -0 -0 -0 -0 -0 -0 -0 -0 -0 -0 -0 -0 -0 -0 -0 -0 -0 -0 -0 -0 -0 -0 -0 -0 -0 -0 -0 -0
-0 -0 -0 -0 -0 -0 -0 -0 -0 -0 -0 -0 -0 -0 -0 -0 -0 -0 -0 -0 -0 -0 -0 -0 -0 -0 -0 -0 -0 -0 -0 -0 -0 -0 -0 -0 -0 -0
-0 -0 -1 -0 -0 -0 -0 -0 -0 -0 -0 -0 -0 -0 -0 -0 -0 -0 -0 -0 -0 -0 -0 -0 -0 -0 -0 -0 -0 -0 -0 -0 -0 -0 -0 -0 -0 -0
-0 -0 -0 -0 -0 -0 -0 -0 -0 -0 -0 -0 -0 -0 -0 -0 -0 -0 -0 -0 -0 -0 -0 -0 -0 -0 -0 -0 -0 -0 -0 -0 -0 -0 -0 -0 -0 -0
-0 -0 -0 -0 -0 -0 -0 -0 -0 -0 -0 -0 -0 -0 -0 -0 -0 -0 -0 -0 -0 -0 -0 -0 -0 -0 -0 -0 -0 -0 -0 -0 -0 -0 -0 -0 -0 -0
-0 -0 -0 -0 -0 -0 -0 -0 -0 -0 -0 -0 -0 -0 -0 -0 -0 -0 -0 -0 -0 -0 -0 -0 -0 -0 -0 -0 -0 -0 -0 -0 -0 -0 -0 -0 -0 -0
-0 -0 -0 -0 -0 -0 -0 -0 -0 -0 -0 -0 -0 -0 -0 -0 -0 -0 -0 -0 -0 -0 -0 -0 -0 -0 -0 -0 -0 -0 -0 -0 -0 -0 -0 -0 -0 -0
-0 -0 -0 -0 -0 -0 -0 -0 -0 -0 -0 -0 -0 -0 -0 -0 -0 -0 -0 -0 -0 -0 -0 -0 -0 -0 -0 -0 -0 -0 -0 -0 -0 -0 -0 -0 -0 -0
-0 -0 -0 -0 -0 -0 -0 -0 -0 -0 -0 -0 -0 -0 -0 -0 -0 -0 -0 -0 -0 -0 -0 -0 -0 -0 -0 -0 -0 -0 -0 -0 -0 -0 -0 -0 -0 -0
-0 -0 -0 -0 -0 -0 -0 -0 -0 -0 -0 -0 -0 -0 -0 -0 -0 -0 -0 -0 -0 -0 -0 -0 -0 -0 -0 -0 -0 -0 -0 -0 -0 -0 -0 -0 -0 -0
-0 -0 -0 -0 -0 -0 -0 -0 -0 -0 -0 -0 -0 -0 -0 -0 -0 -0 -0 -0 -0 -0 -0 -0 -0 -0 -0 -0 -0 -0 -0 -0 -0 -0 -0 -0 -0 -0
-0 -0 -0 -0 -0 -0 -2 -3 -2 -0 -0 -0 -0 -0 -0 -0 -0 -0 -0 -0 -0 -0 -0 -0 -0 -0 -0 -0 -0 -0 -0 -0 -0 -0 -0 -0 -0 -0
-0 -0 -0 -0 -1 -1 -1 -1 -4 -3 -2 -0 -0 -0 -0 -0 -0 -0 -0 -0 -0 -0 -0 -0 -0 -0 -0 -0 -1 -0 -0 -0 -0 -0 -0 -0 -0 -0
-0 -0 -0 -0 -0 -0 -0 -1 -2 -4 -3 -2 -2 -0 -0 -0 -0 -0 -0 -0 -0 -0 -0 -0 -0 -0 -0 -0 -0 -1 -0 -0 -1 -1 -0 -0 -0 -0
Wind_Speed
47 47 47 46 45 46 45 47 48 47 47 37 35 33 35 35 32 30 29 36 32 35 43 37 30 26 25 24 24 23 22 22 22 24 26 31 34 35
45 46 47 45 45 45 48 48 50 48 51 39 38 36 34 34 34 32 41 37 34 41 41 37 34 28 26 25 25 24 24 24 24 24 31 35 37 35
42 43 45 45 47 46 45 48 50 50 51 46 43 41 33 34 33 33 36 38 39 40 41 40 34 31 29 28 27 26 25 25 28 31 24 20 29 32
45 45 45 45 47 47 48 48 51 48 50 51 43 43 45 36 35 36 33 36 38 42 40 39 36 34 32 30 28 27 26 26 26 23 16 9 16 21
42 46 45 45 47 45 48 49 47 48 47 49 48 42 43 40 38 39 38 36 36 37 37 36 34 33 33 32 30 27 26 24 22 18 13 13 15 17
37 39 37 40 43 45 46 45 47 45 45 47 46 44 42 41 41 40 38 34 34 35 34 34 34 34 35 35 32 29 28 26 23 21 20 18 18 19
32 32 32 33 31 34 40 44 44 42 45 44 47 44 43 41 39 36 38 36 36 34 36 37 37 37 38 38 35 32 30 29 27 25 25 24 22 21
31 29 28 27 27 25 23 25 31 41 45 44 41 46 48 42 40 37 37 36 41 35 36 39 37 39 39 38 37 34 33 32 30 29 28 28 27 26
30 27 25 24 22 22 21 20 22 24 27 34 40 38 38 38 38 42 42 42 40 35 34 39 37 39 38 38 37 37 37 36 35 33 32 33 32 32
30 29 26 24 22 18 18 17 19 21 22 23 25 29 33 36 36 38 39 46 34 33 33 38 34 37 35 35 35 36 37 38 39 38 37 35 37 36
31 32 30 25 25 21 17 16 17 18 20 21 21 23 26 27 29 31 35 38 35 33 34 35 36 36 37 37 35 34 34 35 38 41 40 40 39 38
25 27 31 30 27 27 23 19 18 20 20 20 21 23 23 22 21 23 28 35 34 36 31 36 37 36 41 38 36 35 33 36 35 39 42 37 38 38
19 20 26 30 31 29 27 24 22 21 20 19 20 21 22 22 22 22 21 25 28 30 31 33 36 36 37 38 38 37 37 37 37 34 32 32 35 36
35 29 24 27 28 31 29 27 26 24 24 23 22 23 24 24 23 23 22 21 21 25 27 29 32 35 36 40 39 37 36 34 36 35 34 34 32 31
36 37 37 38 37 31 30 28 28 29 28 26 26 27 27 26 25 24 22 21 21 22 25 25 27 31 31 36 39 36 35 33 31 30 31 33 31 31
35 35 35 35 36 36 36 37 36 31 28 28 28 28 28 27 26 26 25 26 24 24 24 24 25 24 27 30 28 32 31 31 28 25 24 25 28 30
35 36 37 37 37 36 36 36 35 35 35 33 32 31 29 29 28 28 27 26 24 25 25 25 23 19 20 23 25 26 27 27 27 24 25 27 24 24
36 37 38 38 38 38 38 37 37 36 35 34 34 33 33 32 31 30 29 28 27 27 27 27 27 25 23 20 21 24 24 25 25 23 22 24 23 21
36 37 37 37 38 38 38 38 38 38 37 36 35 35 35 34 33 32 32 31 30 30 29 29 28 27 26 26 23 23 24 24 23 22 22 23 22 20
37 37 38 38 38 37 38 38 38 38 38 37 37 36 36 35 34 34 34 34 34 33 32 31 30 30 29 28 27 25 23 23 23 21 20 18 16 15
37 37 37 37 38 38 38 38 38 38 38 38 38 37 37 37 36 36 35 35 35 34 34 34 33 33 31 29 28 26 24 22 21 22 21 20 21 20
37 37 37 38 38 38 38 39 39 38 38 38 38 38 38 38 38 37 37 37 36 36 36 36 35 33 31 31 30 28 26 23 20 19 20 21 23 25
38 38 38 38 38 38 39 39 39 39 39 39 39 39 38 39 38 38 38 38 37 37 38 38 36 34 33 32 32 31 28 27 25 25 23 22 21 20
Wind_Direction
280 276 273 273 272 270 270 267 268 269 269 272 272 273 270 266 266 246 247 255 255 260 261 259 253 250 250 254 258 261 261 263 260 262 255 244 238 230
282 278 274 274 273 270 267 266 265 267 268 271 271 270 269 268 265 257 255 255 256 259 261 260 256 250 247 251 259 261 265 268 271 262 251 246 232 221
286 282 278 276 272 270 269 265 264 263 264 268 268 267 270 267 265 264 261 257 259 257 257 261 259 255 252 255 260 264 266 270 281 288 284 245 215 223
285 282 279 276 272 269 266 265 263 264 262 264 266 265 262 269 265 264 264 261 260 260 256 259 261 259 256 257 259 262 265 271 279 286 290 254 193 218
290 284 279 277 272 270 266 264 266 265 264 263 265 266 264 265 265 265 263 264 265 262 258 258 261 260 257 255 257 258 261 263 266 267 260 229 225 223
303 298 286 278 274 269 266 265 263 264 265 261 264 265 265 265 265 264 263 262 263 263 262 262 263 263 260 258 256 255 258 257 255 254 254 243 235 226
316 309 297 290 283 280 269 265 265 265 261 264 261 265 265 265 263 265 263 264 265 264 265 264 265 264 262 260 258 255 254 254 254 252 255 251 242 235
329 319 313 303 289 291 285 280 275 266 263 263 268 264 264 267 265 265 264 261 264 265 265 265 264 264 263 261 259 258 255 254 254 255 254 252 251 249
345 335 330 323 308 297 295 292 290 289 281 272 267 272 271 269 273 266 270 263 262 267 263 265 264 264 264 263 262 260 260 259 258 256 255 257 257 256
359 356 351 345 335 318 308 307 303 300 299 292 285 281 280 276 273 273 272 274 265 263 265 266 267 265 265 265 264 263 263 263 263 261 260 258 260 259
6 8 6 2 359 351 342 329 323 319 315 310 308 302 294 297 286 280 269 274 269 266 271 270 269 268 266 264 265 265 267 265 266 266 263 264 262 260
1 3 7 7 7 8 5 355 345 331 327 325 322 318 313 311 311 295 282 274 276 267 281 272 269 269 266 267 264 267 267 269 272 269 266 264 262 262
353 356 358 3 6 7 7 4 358 349 344 341 338 336 327 322 321 308 300 287 284 279 284 277 273 269 268 271 269 267 271 272 275 274 269 270 266 263
2 353 349 354 359 4 3 1 358 352 350 344 342 341 338 333 326 324 318 310 303 298 295 289 279 276 270 268 267 272 274 274 276 275 276 271 269 270
13 11 9 9 6 356 356 355 355 355 351 346 341 340 333 335 339 334 329 318 318 318 311 301 297 286 278 269 273 277 274 276 278 277 280 270 272 270
359 359 359 1 4 4 2 3 0 349 343 343 341 338 339 336 334 331 324 326 318 315 320 321 312 295 284 281 287 278 280 275 283 282 281 277 279 280
360 360 357 355 352 351 351 351 350 349 350 346 342 334 330 332 331 332 328 325 319 316 316 323 317 317 310 299 293 290 285 284 284 284 279 275 285 284
358 357 355 354 354 352 350 348 346 343 341 340 338 338 337 334 327 324 324 322 319 317 315 316 317 307 302 318 323 300 291 290 288 287 283 279 282 290
358 356 354 353 351 350 348 347 345 343 341 340 337 333 330 329 328 328 326 320 313 312 313 315 315 311 303 300 303 316 299 295 294 291 289 283 283 290
356 353 351 349 347 346 344 342 341 340 339 337 335 334 332 329 326 323 321 318 315 313 310 310 310 308 302 297 297 301 309 299 296 295 293 296 298 297
352 350 349 347 345 342 339 338 337 336 335 333 332 330 328 326 324 322 319 316 314 311 308 306 306 305 301 299 291 295 302 310 307 297 293 290 288 288
351 347 344 343 342 339 337 335 333 333 332 331 330 328 326 323 320 318 317 314 312 309 307 305 306 303 300 296 292 291 294 298 306 308 306 300 288 282
350 347 345 343 342 340 338 336 334 332 330 329 328 327 325 323 321 318 315 313 311 308 308 305 303 301 297 295 290 289 288 288 289 291 296 302 298 295